Location: Alessandria
(44.9000°N, 8.6170°E)
Time: 03:55:35
(UTC+02:00)

ISS - Pass Details

Date: 19 May 2021
Orbit: 417 x 422 km, 51.6° (Epoch: 14 June)

Event Time Altitude Azimuth Distance (km) Brightness Sun altitude
Rises 22:04:25 0° 260° (W) 2,358 0.6 -11.1°
Reaches altitude 10° 22:06:35 10° 268° (W) 1,497 -0.3 -11.4°
Maximum altitude 22:09:47 40° 340° (NNW) 632 -2.3 -11.8°
Drops below altitude 10° 22:13:00 10° 52° (NE) 1,504 -1.0 -12.2°
Sets 22:15:11 0° 60° (ENE) 2,371 -0.1 -12.4°
